DW7002 Weather Reports


Display with metric or nautical units.
time (UTC)temp
F
wind
direction
speed
MPH
gust
MPH
rain 1hr
in
rain 24hr
in
rain mn
in
humidity
%
barometer
mb
20260504210126 78 337 1.0 5.0 0.00 0.00 0.00 36 1014.7
20260504205114 78 244 3.0 6.0 0.00 0.00 0.00 37 1014.8
20260504204130 78 295 4.0 7.0 0.00 0.00 0.00 37 1014.8
20260504203143 77 190 3.0 5.0 0.00 0.00 0.00 39 1014.9
20260504202116 77 278 3.0 6.0 0.00 0.00 0.00 39 1015.0
20260504201128 77 284 4.0 8.0 0.00 0.00 0.00 38 1015.1
20260504200143 77 291 2.0 5.0 0.00 0.00 0.00 38 1015.2
20260504195132 77 307 0.0 4.0 0.00 0.00 0.00 38 1015.3
20260504194123 77 213 1.0 6.0 0.00 0.00 0.00 39 1015.4
20260504193115 77 209 2.0 5.0 0.00 0.00 0.00 39 1015.7
20260504192132 78 254 2.0 6.0 0.00 0.00 0.00 37 1015.9
20260504191125 78 159 2.0 6.0 0.00 0.00 0.00 37 1016.0
20260504190119 77 273 1.0 8.0 0.00 0.00 0.00 38 1016.1
20260504185128 77 123 3.0 8.0 0.00 0.00 0.00 37 1016.2
20260504184125 78 167 2.0 3.0 0.00 0.00 0.00 37 1016.1
20260504183118 77 144 2.0 5.0 0.00 0.00 0.00 37 1016.3
20260504182130 76 112 1.0 5.0 0.00 0.00 0.00 38 1016.3
20260504181128 75 181 3.0 7.0 0.00 0.00 0.00 38 1016.4
20260504180122 75 269 3.0 8.0 0.00 0.00 0.00 38 1016.5
20260504175133 75 307 6.0 9.0 0.00 0.00 0.00 38 1016.7
20260504174124 75 288 1.0 7.0 0.00 0.00 0.00 38 1016.6
20260504173122 74 194 1.0 7.0 0.00 0.00 0.00 41 1016.6
20260504172115 73 133 2.0 10.0 0.00 0.00 0.00 38 1016.9
20260504171129 73 254 2.0 6.0 0.00 0.00 0.00 39 1016.9
20260504170124 73 279 3.0 6.0 0.00 0.00 0.00 40 1016.9
20260504160118 71 285 4.0 7.0 0.00 0.00 0.00 43 1018.3
20260504151121 68 296 1.0 5.0 0.00 0.00 0.00 46 1018.4
20260504150116 67 360 2.0 2.0 0.00 0.00 0.00 51 1018.5
20260504141121 63 275 3.0 4.0 0.00 0.00 0.00 60 1018.3
20260504140135 62 290 1.0 5.0 0.00 0.00 0.00 65 1018.2
20260504130134 55 289 3.0 3.0 0.00 0.00 0.00 76 1018.3
20260504120115 46 130 0.0 0.0 0.00 0.00 0.00 89 1018.3
20260504110114 42 34 0.0 0.0 0.00 0.00 0.00 87 1018.4
20260504100120 43 261 0.0 0.0 0.00 0.00 0.00 86 1018.2
20260504090118 43 261 0.0 0.0 0.00 0.00 0.00 83 1018.3
20260504081122 45 261 0.0 0.0 0.00 0.00 0.00 81 1018.1
20260504080114 45 261 0.0 0.0 0.00 0.00 0.00 81 1018.0
20260504070115 46 280 0.0 0.0 0.00 0.00 0.00 77 1017.8
20260504060134 47 280 0.0 0.0 0.00 0.00 0.00 75 1018.1
20260504050132 48 280 0.0 0.0 0.00 0.00 0.00 73 1018.3
20260504045122 48 280 0.0 0.0 0.00 0.00 0.00 72 1018.2
20260504044118 48 280 0.0 0.0 0.00 0.00 0.00 73 1018.4
20260504043131 48 280 0.0 0.0 0.00 0.00 0.00 70 1018.3
20260504042124 48 280 0.0 0.0 0.00 0.00 0.00 73 1018.3
20260504041122 48 280 0.0 0.0 0.00 0.00 0.00 74 1018.3
20260504040114 48 280 0.0 0.0 0.00 0.00 0.00 73 1018.4
20260504035146 48 280 0.0 0.0 0.00 0.00 0.00 73 1018.4
20260504034118 48 280 0.0 2.0 0.00 0.00 0.00 73 1018.4
20260504033116 48 280 1.0 2.0 0.00 0.00 0.00 72 1018.4
20260504032148 49 280 0.0 0.0 0.00 0.00 0.00 71 1018.5
20260504031119 49 280 0.0 0.0 0.00 0.00 0.00 70 1018.5
20260504030151 49 280 0.0 0.0 0.00 0.00 0.00 70 1018.4
20260504025141 49 280 0.0 0.0 0.00 0.00 0.00 70 1018.3
20260504024116 49 280 0.0 0.0 0.00 0.00 0.00 70 1018.2
20260504023128 49 280 0.0 0.0 0.00 0.00 0.00 69 1018.2
20260504022123 50 280 0.0 0.0 0.00 0.00 0.00 68 1018.0
20260504021120 50 280 0.0 0.0 0.00 0.00 0.00 67 1017.9
20260504020130 50 280 0.0 0.0 0.00 0.00 0.00 66 1017.8
20260504015122 51 280 0.0 0.0 0.00 0.00 0.00 65 1017.8
20260504014135 51 280 0.0 0.0 0.00 0.00 0.00 64 1017.7
20260504013132 52 280 0.0 0.0 0.00 0.00 0.00 62 1017.7
20260504012124 53 280 0.0 0.0 0.00 0.00 0.00 61 1017.7
20260504011117 54 280 0.0 0.0 0.00 0.00 0.00 59 1017.6
20260504010148 55 280 0.0 0.0 0.00 0.00 0.00 59 1017.5
20260504005120 55 280 0.0 0.0 0.00 0.00 0.00 56 1017.5
20260504004132 56 280 0.0 0.0 0.00 0.00 0.00 56 1017.4
20260504003125 57 280 0.0 0.0 0.00 0.00 0.00 52 1017.3
20260504002122 58 280 0.0 0.0 0.00 0.00 0.00 51 1017.2
20260504001136 59 280 0.0 0.0 0.00 0.00 0.00 48 1017.1
20260504000128 60 280 0.0 0.0 0.00 0.00 0.00 45 1017.2
20260503235116 61 280 0.0 0.0 0.00 0.00 0.00 44 1017.1
20260503234153 61 280 0.0 0.0 0.00 0.00 0.00 42 1017.1
20260503233122 62 280 0.0 0.0 0.00 0.00 0.00 41 1017.1
20260503232116 63 280 0.0 0.0 0.00 0.00 0.00 38 1017.0
20260503231129 64 280 1.0 4.0 0.00 0.00 0.00 35 1017.0
20260503230124 64 278 1.0 4.0 0.00 0.00 0.00 35 1017.1
20260503225135 64 258 0.0 0.0 0.00 0.00 0.00 37 1017.1
20260503224126 65 258 0.0 1.0 0.00 0.00 0.00 35 1017.2
20260503223123 65 258 2.0 3.0 0.00 0.00 0.00 32 1017.3
20260503222115 65 264 2.0 7.0 0.00 0.00 0.00 32 1017.5
20260503221129 65 288 3.0 6.0 0.00 0.00 0.00 31 1017.5
20260503220120 65 183 2.0 4.0 0.00 0.00 0.00 32 1017.5
20260503215133 65 288 3.0 6.0 0.00 0.00 0.00 33 1017.6
20260503214125 65 239 2.0 5.0 0.00 0.00 0.00 32 1017.6
20260503213137 65 270 1.0 7.0 0.00 0.00 0.00 32 1017.6
20260503212128 65 242 4.0 7.0 0.00 0.00 0.00 32 1017.6
20260503211124 65 253 2.0 7.0 0.00 0.00 0.00 32 1017.7